Location: Caltech
(34.1382°N, 118.1253°W)
Time: 15:08:06
(UTC-07:00)

SO-50 - Visible Passes

Search period start: 22 April 2018 00:00
Search period end: 02 May 2018 00:00
Orbit: 602 x 685 km, 64.6° (Epoch: 21 April)

Date Brightness Start Highest point End Pass type
(mag) Time Alt. Az. Time Alt. Az. Time Alt. Az.
22 Apr ? 05:01:39 10° SSW 05:05:57 54° ESE 05:10:23 10° NE visible
23 Apr ? 03:49:27 10° SE 03:51:13 12° ESE 03:53:00 10° E visible
23 Apr ? 05:26:49 10° SW 05:31:07 53° WNW 05:35:34 10° NNE visible
24 Apr ? 04:14:11 24° SSE 04:16:02 34° ESE 04:20:07 10° NE visible
25 Apr ? 04:39:09 34° SSW 04:41:05 84° WNW 04:45:39 10° NNE visible
26 Apr ? 03:26:22 22° ESE 03:26:22 22° ESE 03:29:37 10° ENE visible
26 Apr ? 05:04:02 20° WSW 05:06:23 31° NW 05:10:28 10° N visible
27 Apr ? 03:51:10 62° ESE 03:51:10 62° ESE 03:55:35 10° NE visible
27 Apr ? 05:29:38 10° WNW 05:31:58 14° NW 05:34:19 10° NNW visible
28 Apr ? 02:38:14 11° E 02:38:14 11° E 02:38:38 10° ENE visible
28 Apr ? 04:15:53 46° WNW 04:16:17 47° WNW 04:20:42 10° NNE visible
29 Apr ? 03:02:54 27° ENE 03:02:54 27° ENE 03:05:23 10° NE visible
29 Apr ? 04:40:32 18° WNW 04:41:45 20° NW 04:45:05 10° N visible
30 Apr ? 03:27:30 46° NNE 03:27:30 46° NNE 03:30:48 10° NNE visible
01 May ? 02:14:24 13° ENE 02:14:24 13° ENE 02:14:56 10° ENE visible
01 May ? 03:52:02 28° NW 03:52:02 28° NW 03:55:32 10° N visible
